This demonstration page uses our WeatherBlox Daily Observations layout. Learn more.

Left ArrowRight Arrow

38.83388, -104.82136

Hourly Observations for January 15, 2022

Temp ( °F °C ) Dew Point ( °F °C ) Humidity (%) Winds ( mph kmh ) Pressure ( in mb ) Visibility ( mi km ) Precip ( " mm )
12:54 am 00:54 Mostly Cloudy with Light Snow 24 -4.4 16 -8.9 71 71 NNW 14 22 30.47 1032 4 6 0.00 0.00
1:54 am 01:54 Partly Cloudy with Scattered Snow Showers 23 -5 14 -10 68 68 N 15 24 30.48 1032 10 16 0.00 0.00
2:20 am 02:20 Mostly Cloudy with Light Snow 22 -5.6 12 -11.1 66 66 N 13 20 30.57 1035 10 16 0.00 0.00
2:34 am 02:34 Partly Cloudy 23 -5 12 -11 63 63 N 13 20 30.56 1035 10 16 0.00 0.00
2:54 am 02:54 Mostly Clear 23 -5 13 -10.6 65 65 NNW 12 19 30.47 1032 10 16 0.00 0.00
3:54 am 03:54 Mostly Clear 22 -5.6 12 -11.1 66 66 NNW 8 13 30.49 1033 10 16 0.00 0.00
4:54 am 04:54 Mostly Clear 21 -6.1 12 -11.1 68 68 NW 5 7 30.51 1033 10 16 0.00 0.00
5:54 am 05:54 Clear 21 -6.1 11 -11.7 65 65 WNW 6 9 30.53 1034 10 16 0.00 0.00
6:54 am 06:54 Mostly Clear 23 -5 12 -11.1 63 63 NW 9 15 30.51 1033 10 16 0.00 0.00
7:54 am 07:54 Sunny 24 -4.4 12 -11.1 60 60 WSW 5 7 30.51 1033 10 16 0.00 0.00
8:54 am 08:54 Sunny 27 -2.8 14 -10 58 58 S 5 7 30.52 1033 10 16 0.00 0.00
9:54 am 09:54 Sunny 29 -1.7 14 -10 54 54 Calm 30.51 1033 10 16 0.00 0.00
10:54 am 10:54 Sunny 32 0 15 -9.4 50 50 Calm 30.48 1032 10 16 0.00 0.00
11:54 am 11:54 Sunny 36 2.2 14 -10 40 40 SW 5 7 30.41 1030 10 16 0.00 0.00
12:54 pm 12:54 Mostly Sunny 39 3.9 13 -10.6 34 34 SW 5 7 30.35 1028 10 16 0.00 0.00
1:54 pm 13:54 Mostly Sunny 42 5.6 11 -11.7 28 28 SSW 3 6 30.30 1026 10 16 0.00 0.00
2:54 pm 14:54 Mostly Sunny 44 6.7 11 -11.7 26 26 SSW 6 9 30.27 1025 10 16 0.00 0.00
3:54 pm 15:54 Mostly Sunny 44 6.7 9 -12.8 24 24 S 5 7 30.26 1025 10 16 0.00 0.00
4:54 pm 16:54 Partly Cloudy 40 4.4 9 -12.8 28 28 S 6 9 30.27 1025 10 16 0.00 0.00
5:54 pm 17:54 Partly Cloudy 37 2.8 8 -13.3 30 30 S 6 9 30.28 1025 10 16 0.00 0.00
6:54 pm 18:54 Mostly Clear 33 0.6 9 -12.8 36 36 Calm 30.29 1026 10 16 0.00 0.00
7:54 pm 19:54 Mostly Clear 25 -3.9 11 -11.7 55 55 N 6 9 30.30 1026 10 16 0.00 0.00
8:54 pm 20:54 Mostly Clear 27 -2.8 12 -11.1 53 53 NW 5 7 30.27 1025 10 16 0.00 0.00
9:54 pm 21:54 Partly Cloudy 27 -2.8 12 -11.1 53 53 E 8 13 30.24 1024 10 16 0.00 0.00
10:54 pm 22:54 Partly Cloudy 37 2.8 8 -13.3 30 30 WSW 5 7 30.17 1022 10 16 0.00 0.00
11:54 pm 23:54 Mostly Cloudy 37 2.8 9 -12.8 31 31 NW 3 6 30.13 1020 10 16 0.00 0.00

Powered by AerisWeather